Weather in Tesovskiy

Russia / Novgorod Oblast     58°47′29″N   30°52′32″E
temp.,
°C
wind,
m/s
gust,
m/s
humid.,
%
clouds,
%
prec.,
mm/h
press.,
hPa
HPBL,
m
21 january, fri
fri2100:00−3s3109395 0.1 989373
03:00−3sse3893100 0.2 990556
06:00−4sse399482 0.1 990422
09:00−6se2697100 0.2 992194
12:00−3e2594100 0.1 993321
15:00−3ne2496100 0.2 994301
18:00−4ne2597100 0.9 996333
21:00−8ne269864 1.4 99991
22 january, sat
sat2200:00−10nne279997 0.0 1002116
03:00−4n41095100 0.5 1003600
06:00−5n41194100 0.3 1005608
09:00−4n4996100 0.9 1007763
12:00−5n4895100 0.8 1009626
15:00−5ne379180 1.2 1012599
18:00−10n269882 0.0 1015107
21:00−12n269992 0.1 1018100
23 january, sun
sun2300:00−15n2499100 0.0 102063
03:00−16nne239862 0.0 102253
06:00−18ne119946 0.0 10249
09:00−19nw119921 0.0 10279
12:00−12sw129353 0.0 102993
15:00−9sw139285 0.0 1030177
18:00−11s2497100 0.0 103175
21:00−12ssw269775 0.0 1033104
24 january, mon
mon2400:00−10ssw389587 0.0 1033167
03:00−9ssw399494 0.0 1033222
06:00−9ssw3109480 0.0 1032263
09:00−8ssw4109224 0.0 1032276
12:00−8s412905 0.0 1031309
15:00−6ssw514875 0.0 1029454
18:00−6ssw516865 0.0 1027508
21:00−6ssw6168536 0.0 1025536
25 january, tue
tue2500:00−5ssw51588100 0.0 1023555
03:00−5ssw51494100 0.2 1021586
06:00−4ssw51494100 0.3 1017554
09:00−3ssw51396100 0.9 1015580
12:00−2ssw41397100 2.4 1014617
15:000wnw4998100 4.0 1013734
18:00−2nw4109088 0.2 1016525
21:00−5nw4109392 0.2 1019504